Wetbulb
64.18 65.79 65.26 64.18 63.70 63.13 61.83 62.07 61.79 62.25 62.39 62.49 62.52 62.15 62.04 62.65 63.39 64.28 64.55 69.53 69.23 68.40 68.57 68.38 68.07 70.13 69.85 70.54 70.06 69.34 68.71 68.59 68.40 68.28 68.39 68.40 68.44 68.68 68.92 69.04 69.37 69.82 70.12
65.15 63.78 63.69 62.64 62.07 62.95 62.28 62.70 61.17 62.48 62.05 61.74 61.08 61.89 62.17 62.95 63.79 64.50 64.68 65.64 67.83 67.38 68.25 68.34 68.58 68.76 68.45 68.37 68.32 68.57 68.80 68.83 68.23 68.26 68.15 67.72 67.73 67.88 67.91 67.77 67.60 67.69 67.65
64.27 64.79 62.78 60.93 61.33 62.57 63.24 62.72 62.88 61.89 61.27 60.90 61.19 61.30 61.99 62.84 63.21 63.46 63.50 64.35 64.38 66.40 66.99 67.61 68.29 68.20 68.22 67.17 67.13 66.71 66.93 67.93 67.86 66.99 66.60 66.53 66.86 67.15 67.17 67.19 67.03 66.98 66.90
64.08 63.76 60.99 60.43 60.32 62.55 61.91 61.18 61.62 59.62 60.13 60.16 59.55 60.47 61.18 61.23 62.50 62.54 62.84 63.26 62.82 62.46 63.37 64.26 65.08 65.90 65.37 65.44 65.42 64.16 63.50 63.01 63.34 63.60 63.58 63.61 63.67 63.74 64.31 64.52 65.07 65.22 65.54
63.11 64.25 60.54 60.48 62.07 60.39 59.67 60.11 59.82 60.43 59.33 59.40 59.49 59.11 60.43 60.99 60.90 61.90 61.21 60.91 61.59 61.38 61.02 62.71 62.88 63.12 63.50 64.07 63.83 62.88 61.97 60.71 60.72 60.46 60.98 61.11 61.28 61.56 61.65 61.84 61.84 62.05 62.52
62.46 62.48 60.20 61.05 59.53 58.39 58.38 59.05 59.81 59.74 59.31 58.51 58.25 58.60 58.81 60.17 60.11 60.20 60.22 60.90 59.58 60.03 59.55 58.86 59.17 59.60 61.04 60.92 61.37 61.48 60.91 60.57 59.49 58.55 58.30 58.49 59.09 59.28 59.31 59.36 59.40 59.57 60.18
62.22 61.30 59.69 59.38 60.39 57.62 58.31 57.71 57.34 56.89 57.70 57.69 56.57 56.56 58.29 60.32 60.24 59.39 59.27 58.41 58.12 58.03 58.14 58.84 58.08 57.96 58.22 60.53 60.44 60.56 60.61 60.52 59.99 59.47 58.22 57.96 57.57 58.03 58.06 58.19 58.01 57.94 58.03
60.86 59.32 60.19 58.86 59.31 57.88 57.42 57.82 57.32 54.51 56.72 57.31 53.45 53.01 52.39 55.33 56.70 57.33 58.47 57.93 57.84 57.36 56.34 56.82 56.95 57.43 57.91 58.27 57.50 58.99 59.18 59.32 59.90 59.39 58.69 58.30 58.28 57.58 57.28 57.15 57.09 57.08 57.15
59.97 60.78 60.08 59.54 60.02 57.08 56.81 56.89 55.96 56.20 52.44 54.63 56.15 51.48 48.12 46.14 48.01 56.77 57.46 56.58 56.14 55.81 56.45 56.72 56.99 56.90 56.49 57.33 56.83 56.22 56.80 56.58 56.90 56.72 56.78 56.79 57.02 57.43 57.68 56.68 56.67 56.86 56.92
59.40 59.58 60.01 59.57 59.92 56.92 57.13 55.87 56.02 55.29 53.18 50.65 51.81 53.63 53.08 50.92 44.73 45.31 53.34 54.91 56.01 55.68 54.95 53.34 52.42 54.04 54.58 55.04 54.98 54.71 53.94 53.85 54.35 54.04 54.31 54.86 55.18 55.77 56.75 57.41 56.73 56.48 56.55
59.46 58.49 59.55 59.49 59.13 57.67 58.25 56.90 56.33 55.50 53.19 52.02 50.20 50.14 50.37 50.36 50.31 47.39 44.19 46.75 49.56 51.07 51.42 51.60 50.63 50.96 52.45 52.74 52.83 52.49 53.61 52.97 52.15 52.10 52.35 52.55 53.56 54.25 55.11 55.81 56.38 56.55 56.84
58.62 59.22 59.03 59.41 59.09 58.17 57.93 56.94 57.70 55.95 54.93 53.71 53.03 52.79 50.00 47.86 47.07 47.05 45.83 46.35 46.62 49.54 49.76 50.74 50.55 50.78 51.68 51.53 53.00 53.93 56.23 53.28 51.32 51.04 51.93 51.43 51.56 52.25 53.22 54.37 55.07 55.39 56.09
57.39 59.07 59.16 58.31 58.34 59.18 57.67 58.21 56.93 56.70 54.04 53.73 53.51 51.87 52.17 50.62 50.61 49.34 47.79 46.11 45.57 48.44 51.19 51.53 52.50 52.76 52.80 51.97 51.79 52.99 54.87 53.26 51.48 52.22 52.23 51.33 51.68 51.79 52.11 52.61 53.10 53.74 54.49
57.52 59.89 58.47 58.69 57.64 56.78 57.86 57.42 55.64 55.64 55.67 53.61 53.77 53.76 52.81 51.49 52.16 50.91 48.63 46.89 44.54 45.83 47.52 50.28 53.03 52.42 51.80 52.36 53.10 54.12 52.06 53.14 53.44 55.07 54.53 52.75 51.75 51.67 51.81 51.89 52.09 52.27 52.27
58.47 59.20 58.86 57.50 56.94 55.80 57.06 57.60 54.93 54.95 54.97 54.31 54.78 55.17 52.96 52.18 52.57 51.69 51.49 50.42 47.35 42.85 43.84 47.26 47.67 51.41 52.09 51.57 52.79 51.47 50.68 53.92 54.05 54.83 53.74 53.53 51.79 51.43 51.23 51.17 51.25 51.29 51.11
59.40 58.71 58.01 57.13 56.51 55.01 56.40 56.99 56.01 55.18 54.70 54.14 55.01 53.81 53.83 52.89 53.31 52.21 51.84 50.84 48.97 47.75 44.26 48.10 48.85 51.34 52.91 52.83 52.53 51.33 51.78 54.37 54.09 54.04 51.56 50.74 50.19 50.07 49.76 49.44 49.46 49.93 49.86
59.36 58.10 57.66 56.65 56.01 54.52 55.95 56.56 55.94 54.61 53.88 54.23 53.75 54.96 53.53 54.38 53.24 52.31 51.95 51.52 49.30 48.17 46.81 48.25 49.79 50.78 51.14 51.24 50.11 50.24 52.29 50.56 51.14 53.59 53.61 52.27 51.55 50.49 49.32 48.63 48.44 48.23 48.43
59.02 58.35 58.05 56.75 55.53 54.63 55.91 56.24 55.60 55.22 53.82 53.90 54.03 54.16 54.27 53.95 52.50 53.25 52.05 51.34 50.72 51.34 48.47 46.22 48.31 49.29 50.45 51.30 50.50 50.96 50.70 50.47 49.81 51.88 52.91 52.45 50.85 49.79 49.25 48.88 48.80 48.54 48.45
58.09 58.21 56.93 56.17 55.75 54.73 55.35 55.89 55.44 54.70 54.93 54.90 54.52 54.24 53.87 53.55 51.01 51.19 52.15 51.27 50.75 50.58 49.66 47.81 46.95 48.23 48.87 49.98 49.83 49.66 47.98 48.21 50.11 52.55 52.37 50.88 50.34 49.59 49.36 49.25 49.16 48.99 48.20
57.92 57.90 57.43 57.08 56.19 55.29 55.07 54.75 54.58 54.49 54.84 54.75 55.70 55.13 53.09 53.54 51.26 52.18 52.13 51.51 51.23 49.68 48.46 46.87 46.67 46.36 46.80 48.73 47.76 45.54 45.29 46.90 46.27 48.85 49.55 49.66 49.18 49.68 49.52 49.71 49.71 48.83 48.54
58.37 58.54 57.32 57.13 56.37 55.14 53.84 55.20 55.91 55.27 54.43 54.31 55.06 55.53 54.78 55.52 56.07 53.82 52.50 51.51 50.76 48.40 47.18 46.23 45.45 44.53 44.69 44.97 43.74 45.16 44.26 44.72 45.12 45.81 44.18 44.94 44.95 45.16 45.60 48.06 48.15 48.46 47.73
58.50 58.19 57.07 56.51 56.62 54.30 49.01 51.04 51.85 53.67 53.67 53.16 52.91 55.03 54.64 55.44 52.97 53.70 53.63 52.97 51.67 48.17 46.34 46.33 45.45 44.13 45.06 45.09 44.76 43.93 42.86 41.64 39.71 45.49 44.47 43.13 44.88 44.34 45.17 45.58 48.36 48.30 47.34
59.28 58.28 57.90 57.00 57.10 57.35 51.25 48.99 50.12 53.94 54.11 53.86 54.43 54.14 54.72 54.49 53.00 51.95 50.75 50.67 50.23 50.15 50.48 48.61 45.64 45.41 44.40 45.43 44.61 43.38 42.59 41.74 41.35 44.92 44.28 40.88 43.72 42.42 45.51 46.22 47.62 47.52 46.87
59.00 58.10 56.33 57.52 56.98 56.69 51.90 48.61 49.42 54.14 54.79 55.47 55.51 55.03 53.23 49.21 45.46 46.89 47.53 47.20 47.33 47.13 49.33 48.44 47.61 47.34 47.05 46.55 46.05 44.72 44.05 44.60 44.07 44.11 45.31 40.01 43.15 41.66 43.83 44.44 47.66 48.57 47.07
57.05 57.42 58.04 57.71 57.35 57.48 51.92 48.58 49.88 55.37 55.20 54.80 55.05 51.91 54.12 46.11 43.22 43.58 45.60 45.27 45.78 47.62 48.97 48.27 47.19 46.04 44.69 44.50 44.60 43.90 42.95 42.84 41.30 41.70 43.67 42.31 42.32 41.94 42.43 42.65 45.84 47.26 46.53
55.63 56.72 56.70 57.85 55.44 57.34 46.56 48.02 47.29 52.75 52.92 52.89 49.89 47.44 44.77 45.43 42.70 42.91 44.50 45.16 44.74 45.03 44.32 45.46 47.43 48.30 47.32 48.26 47.18 45.90 45.11 42.64 42.11 40.78 43.73 41.27 41.32 41.25 38.96 42.08 43.80 43.82 44.69
MSLP
1017.82 1017.27 1017.14 1016.91 1016.90 1016.89 1016.89 1016.57 1016.37 1015.92 1015.55 1015.08 1015.04 1014.99 1014.76 1014.59 1014.35 1014.12 1013.70 1013.55 1013.58 1013.56 1013.15 1012.96 1012.97 1012.99 1013.29 1013.63 1013.96 1014.09 1014.32 1014.43 1014.58 1014.78 1014.98 1015.08 1015.14 1015.22 1015.37 1015.51 1015.69 1015.86 1015.94
1017.94 1017.63 1017.33 1017.36 1017.35 1017.12 1016.98 1016.66 1016.39 1016.17 1015.79 1015.55 1015.77 1015.76 1015.51 1015.24 1015.04 1014.94 1014.51 1014.55 1014.41 1014.26 1013.76 1013.37 1013.13 1013.07 1013.51 1013.87 1014.15 1014.23 1014.40 1014.45 1014.70 1014.90 1015.18 1015.39 1015.53 1015.60 1015.68 1015.82 1016.02 1016.11 1016.18
1018.19 1017.83 1017.67 1017.89 1017.77 1017.30 1016.94 1016.73 1016.43 1016.14 1016.14 1016.11 1016.26 1016.13 1015.92 1015.80 1015.73 1015.73 1015.50 1015.70 1015.49 1015.23 1014.82 1014.51 1014.30 1014.46 1014.43 1014.72 1014.73 1014.88 1015.10 1014.91 1014.78 1014.89 1015.41 1015.79 1016.02 1016.08 1016.09 1016.15 1016.26 1016.44 1016.54
1018.28 1018.04 1018.23 1018.34 1017.96 1017.33 1017.19 1017.09 1016.97 1016.87 1016.60 1016.36 1016.41 1016.26 1016.11 1016.09 1016.03 1016.03 1016.14 1016.20 1016.27 1016.25 1015.95 1015.86 1015.67 1015.59 1015.96 1014.70 1015.57 1016.18 1016.24 1016.21 1015.37 1015.41 1015.80 1016.16 1016.49 1016.64 1016.61 1016.65 1016.71 1016.87 1016.89
1018.48 1018.30 1018.59 1018.48 1017.95 1017.82 1017.78 1017.77 1017.63 1017.35 1017.07 1016.75 1016.46 1016.43 1016.48 1016.37 1016.28 1016.26 1016.55 1016.50 1016.46 1016.85 1016.82 1016.67 1016.48 1016.34 1016.11 1016.37 1016.54 1016.54 1017.39 1016.99 1017.24 1016.99 1016.18 1017.23 1017.32 1017.21 1017.22 1017.26 1017.27 1017.33 1017.28
1018.57 1018.60 1018.62 1018.61 1018.46 1018.62 1018.59 1018.46 1018.24 1017.73 1017.47 1017.38 1016.94 1016.72 1016.67 1016.60 1016.48 1016.53 1016.82 1016.67 1016.81 1016.90 1017.29 1017.51 1017.69 1017.48 1017.53 1017.16 1017.49 1017.75 1018.22 1017.62 1017.70 1018.00 1018.04 1017.86 1018.11 1017.74 1017.65 1017.56 1017.72 1017.73 1017.72
1018.72 1018.92 1018.80 1018.85 1018.86 1019.00 1019.06 1018.97 1018.61 1018.11 1017.69 1017.66 1017.26 1016.84 1016.62 1016.47 1016.51 1016.81 1016.81 1017.06 1017.30 1017.21 1017.32 1017.61 1017.97 1018.11 1018.08 1018.01 1018.03 1018.42 1018.05 1018.23 1018.24 1017.73 1018.07 1017.99 1018.38 1018.03 1017.78 1017.73 1017.98 1017.96 1017.98
1019.18 1019.36 1019.30 1019.26 1019.11 1019.24 1019.32 1019.27 1019.09 1018.76 1018.23 1017.88 1017.94 1017.42 1016.92 1016.69 1016.87 1016.83 1017.10 1017.21 1017.49 1017.51 1017.85 1017.80 1017.81 1017.89 1018.20 1018.37 1018.28 1018.16 1018.28 1018.75 1018.13 1018.30 1018.42 1018.41 1018.21 1017.98 1017.89 1017.87 1018.13 1018.09 1018.02
1019.28 1019.44 1019.55 1019.57 1019.31 1019.46 1019.68 1019.69 1019.59 1019.33 1019.21 1018.50 1018.30 1018.40 1018.07 1018.23 1017.66 1017.29 1017.14 1017.19 1017.39 1017.66 1017.70 1017.85 1017.85 1018.07 1018.13 1018.47 1018.82 1018.75 1018.84 1018.86 1018.92 1018.86 1018.81 1018.66 1018.37 1018.12 1017.89 1017.84 1018.00 1018.03 1017.87
1019.31 1019.54 1019.65 1019.74 1019.70 1019.95 1020.09 1020.04 1019.99 1019.83 1019.56 1019.37 1018.94 1018.61 1018.45 1018.52 1018.54 1018.04 1017.54 1017.39 1017.45 1017.68 1017.67 1017.89 1018.21 1018.25 1018.35 1018.79 1019.14 1019.42 1019.41 1019.23 1019.27 1019.20 1019.03 1018.97 1018.61 1018.35 1018.07 1017.77 1017.77 1017.73 1017.69
1019.19 1019.41 1019.71 1019.83 1019.92 1020.12 1020.18 1020.39 1020.45 1020.50 1020.15 1020.16 1019.73 1019.42 1019.05 1018.89 1018.82 1018.80 1018.47 1017.90 1017.59 1017.57 1017.63 1017.92 1018.01 1018.10 1018.17 1018.43 1018.73 1018.79 1018.88 1019.09 1019.32 1019.30 1019.24 1018.97 1018.80 1018.60 1018.40 1018.08 1017.72 1017.50 1017.43
1019.39 1019.45 1019.58 1019.99 1020.02 1020.06 1020.37 1020.38 1020.25 1020.63 1020.66 1020.64 1020.28 1019.76 1019.74 1019.80 1019.75 1019.49 1019.23 1018.80 1018.53 1017.92 1017.43 1017.75 1017.79 1017.76 1017.91 1018.15 1018.45 1018.50 1018.52 1018.67 1018.95 1019.06 1018.88 1018.77 1018.78 1018.72 1018.53 1018.30 1018.10 1017.90 1017.51
1019.11 1019.61 1019.83 1020.10 1019.97 1019.94 1020.26 1020.36 1020.48 1020.73 1020.96 1021.00 1020.79 1020.51 1020.33 1019.99 1019.91 1019.81 1019.73 1019.53 1019.20 1018.42 1017.98 1017.72 1017.67 1017.67 1017.83 1017.98 1018.18 1018.13 1017.98 1018.47 1018.84 1018.75 1018.66 1018.61 1018.67 1018.59 1018.44 1018.33 1018.20 1017.98 1017.70
1018.98 1019.40 1019.56 1019.67 1019.97 1020.08 1020.10 1020.34 1020.62 1020.73 1020.90 1020.95 1020.86 1020.64 1020.45 1020.30 1019.90 1019.94 1019.90 1019.88 1019.65 1019.09 1018.89 1018.63 1018.31 1018.18 1018.19 1018.07 1017.93 1017.90 1018.10 1018.18 1018.04 1017.99 1017.87 1017.97 1018.14 1018.24 1018.21 1018.15 1018.06 1017.95 1017.81
1018.74 1019.08 1019.40 1019.74 1019.96 1020.07 1019.95 1020.16 1020.37 1020.46 1020.67 1020.69 1020.79 1020.74 1020.61 1020.37 1020.20 1020.19 1020.11 1019.99 1019.95 1019.98 1019.70 1018.88 1018.68 1017.97 1017.92 1017.93 1017.85 1017.82 1017.79 1017.77 1017.71 1017.64 1017.45 1017.57 1017.78 1017.79 1017.77 1017.72 1017.59 1017.45 1017.37
1018.74 1019.14 1019.48 1019.69 1019.88 1019.91 1019.81 1020.03 1020.42 1020.46 1020.42 1020.46 1020.44 1020.54 1020.56 1020.34 1020.25 1020.20 1020.10 1020.06 1020.13 1020.22 1019.91 1019.39 1018.97 1018.43 1017.87 1017.69 1017.46 1017.52 1017.41 1017.39 1017.38 1017.31 1017.25 1017.33 1017.44 1017.40 1017.30 1017.17 1017.05 1016.88 1016.75
1018.93 1019.10 1019.35 1019.55 1019.71 1019.91 1020.05 1020.25 1020.32 1020.24 1020.09 1020.14 1020.21 1020.31 1020.33 1020.20 1020.24 1020.13 1020.01 1019.88 1019.98 1019.82 1019.79 1019.17 1018.77 1018.22 1017.74 1017.39 1017.10 1017.06 1017.14 1017.07 1016.90 1016.90 1016.75 1016.74 1016.82 1016.88 1016.89 1016.83 1016.71 1016.57 1016.38
1018.83 1019.04 1019.21 1019.49 1019.62 1019.81 1020.10 1020.23 1020.24 1020.17 1020.07 1020.02 1020.07 1020.05 1020.05 1019.93 1019.94 1020.02 1019.95 1019.86 1019.58 1019.28 1019.26 1019.04 1018.41 1017.81 1017.09 1016.72 1016.76 1016.78 1016.70 1016.69 1016.55 1016.50 1016.43 1016.19 1016.23 1016.34 1016.31 1016.22 1016.12 1015.96 1015.80
1018.86 1018.86 1019.16 1019.39 1019.51 1019.72 1020.01 1020.22 1020.19 1020.11 1019.97 1019.84 1019.89 1019.82 1019.72 1019.78 1020.04 1019.85 1019.88 1019.73 1019.22 1019.07 1018.91 1018.58 1018.04 1017.28 1016.80 1016.50 1016.72 1016.77 1016.84 1016.62 1016.40 1016.09 1015.87 1015.87 1015.86 1015.86 1015.76 1015.59 1015.37 1015.27 1015.19
1018.53 1018.73 1018.97 1019.15 1019.31 1019.47 1019.69 1019.78 1019.77 1019.77 1019.69 1019.69 1019.61 1019.56 1019.47 1019.46 1019.52 1019.58 1019.54 1019.23 1018.96 1019.06 1018.74 1018.36 1018.06 1017.53 1017.31 1017.06 1017.15 1017.25 1017.00 1016.68 1016.36 1015.92 1015.77 1015.67 1015.58 1015.44 1015.20 1014.95 1014.75 1014.63 1014.51
1018.22 1018.34 1018.62 1018.79 1019.02 1019.28 1019.34 1019.38 1019.60 1019.47 1019.50 1019.42 1019.39 1019.25 1019.03 1018.91 1018.87 1018.79 1018.65 1018.75 1018.83 1018.69 1018.53 1018.30 1018.03 1017.63 1017.52 1017.42 1017.42 1017.27 1017.12 1016.66 1016.24 1015.97 1015.84 1015.63 1015.36 1015.09 1014.72 1014.42 1014.19 1014.09 1014.04
1018.03 1018.14 1018.27 1018.46 1018.64 1018.92 1019.18 1019.30 1019.48 1019.43 1019.35 1019.21 1019.02 1018.87 1018.93 1018.57 1018.41 1018.34 1018.48 1018.44 1018.48 1018.36 1018.23 1017.98 1017.82 1017.87 1017.78 1017.64 1017.53 1017.38 1017.07 1016.89 1016.41 1015.94 1015.85 1015.52 1015.09 1014.73 1014.25 1013.97 1013.78 1013.65 1013.56
1018.02 1018.16 1018.21 1018.25 1018.41 1018.63 1018.97 1019.14 1019.26 1019.26 1019.17 1018.87 1018.55 1018.46 1018.50 1018.89 1018.58 1018.38 1018.36 1018.35 1018.18 1017.93 1017.62 1017.58 1017.58 1017.67 1017.52 1017.40 1017.41 1017.21 1016.97 1016.84 1016.52 1016.04 1015.84 1015.41 1014.96 1014.48 1014.00 1013.59 1013.35 1013.12 1013.09
1017.94 1018.10 1018.12 1018.16 1018.33 1018.52 1018.70 1018.85 1018.97 1019.07 1018.88 1018.39 1017.97 1017.83 1017.88 1018.48 1018.90 1018.75 1018.55 1018.44 1018.17 1017.71 1017.40 1017.25 1017.28 1017.22 1017.09 1017.09 1017.11 1017.01 1016.75 1016.43 1016.14 1015.82 1015.74 1015.33 1014.72 1014.32 1013.85 1013.35 1012.93 1012.60 1012.62
1017.80 1017.88 1017.95 1018.02 1018.22 1018.36 1018.55 1018.66 1018.88 1018.87 1018.35 1017.96 1017.48 1017.88 1017.87 1018.71 1019.00 1018.93 1018.82 1018.64 1018.20 1017.62 1017.29 1017.14 1017.09 1016.99 1016.80 1016.73 1016.83 1016.86 1016.58 1016.35 1015.97 1015.59 1015.58 1015.30 1014.63 1014.46 1013.94 1013.17 1012.45 1012.47 1012.43
1017.57 1017.58 1017.68 1017.79 1018.02 1018.15 1018.66 1018.80 1019.14 1018.90 1018.28 1018.02 1018.21 1018.37 1018.48 1018.79 1018.91 1019.00 1019.14 1018.84 1018.40 1018.09 1017.82 1017.23 1016.92 1016.70 1016.37 1016.16 1016.07 1016.29 1016.14 1016.04 1015.77 1015.43 1015.10 1015.30 1014.75 1014.76 1014.08 1013.10 1012.60 1012.46 1012.19
Wind_Speed
4 4 3 4 4 4 5 5 4 5 5 6 9 10 7 9 10 7 6 23 19 21 17 12 12 9 7 6 8 10 9 10 11 11 11 11 12 11 10 11 10 8 7
4 5 4 5 5 3 4 4 5 4 4 7 8 9 12 10 12 11 9 10 19 22 23 18 13 6 4 5 6 7 8 11 13 14 14 14 13 12 11 10 9 7 6
5 5 5 5 5 5 5 5 5 4 5 7 6 4 4 7 9 10 10 10 12 28 30 29 26 29 20 8 22 26 12 14 19 21 20 20 19 17 15 13 12 10 8
5 4 5 4 5 4 5 4 4 6 4 2 3 3 3 6 5 9 8 7 7 8 17 26 27 26 26 29 26 21 23 23 24 23 19 18 17 16 16 16 14 13 14
5 4 4 3 5 6 6 6 5 4 5 6 3 4 4 4 4 6 9 8 8 8 7 19 22 23 25 25 25 22 20 20 22 19 21 16 14 14 14 14 13 12 12
4 6 4 3 5 6 6 6 7 4 4 5 7 3 3 3 3 4 5 5 5 8 9 9 7 10 20 20 20 19 14 18 19 15 14 14 12 12 12 11 10 10 11
5 6 4 5 3 5 5 6 5 7 2 4 4 4 3 5 4 5 6 5 6 9 8 7 5 4 7 17 15 12 12 13 12 15 12 11 9 10 10 9 8 8 7
6 5 5 4 5 4 6 5 7 4 4 4 3 4 2 0 4 5 4 4 5 4 5 6 6 5 5 4 10 17 16 14 17 15 14 13 12 9 8 7 7 6 5
5 5 4 5 4 7 4 5 8 7 5 5 6 3 4 4 7 2 5 4 4 3 3 4 5 5 4 6 8 12 15 13 13 13 14 14 13 12 10 6 7 7 6
5 5 5 4 5 5 5 5 6 6 6 5 5 3 2 2 2 5 3 2 3 5 4 5 5 4 5 6 12 12 10 9 10 11 12 13 14 14 13 13 9 9 9
3 5 4 3 3 4 4 6 5 6 4 5 4 4 5 5 5 4 5 5 5 3 4 4 3 3 4 4 5 8 9 7 3 5 7 9 11 12 12 13 14 13 14
3 3 3 5 3 3 4 4 3 6 5 5 6 5 4 4 5 5 6 6 5 3 3 3 1 3 3 3 6 5 7 6 3 2 6 7 8 10 11 12 12 14 15
6 5 3 3 3 1 4 2 4 5 4 4 6 5 5 3 3 3 4 4 5 6 1 2 3 4 3 3 4 4 7 8 4 6 6 5 7 9 11 12 13 15 16
7 5 4 4 2 3 3 1 3 3 3 2 3 4 5 6 3 3 2 3 5 6 7 4 5 5 3 3 6 4 5 7 6 8 6 7 6 9 10 12 13 14 16
6 5 4 4 1 3 1 1 3 4 1 2 3 3 4 5 4 5 4 4 3 4 8 9 5 2 2 3 4 4 1 6 12 10 9 3 4 9 10 13 17 17 17
6 5 3 3 2 1 3 1 4 4 3 1 1 2 3 3 3 3 3 3 4 5 4 5 6 6 3 3 5 4 5 3 10 6 0 1 5 9 12 15 16 18 17
2 5 4 4 4 3 1 1 1 3 3 2 3 3 4 5 3 2 4 3 3 3 6 6 5 8 7 5 5 4 5 5 4 3 6 3 6 7 9 12 13 15 18
4 4 4 2 2 1 3 4 5 3 3 3 4 3 5 4 4 4 3 6 4 5 2 8 7 9 6 4 6 5 4 4 2 7 9 8 5 6 7 11 14 15 14
5 4 5 4 4 4 5 4 4 4 4 4 5 5 5 5 3 5 5 6 5 3 5 7 8 4 5 1 4 4 3 4 4 10 8 6 3 6 10 13 16 15 12
7 6 4 5 4 4 5 5 6 5 5 5 5 5 6 6 5 8 7 7 4 5 6 5 7 6 4 5 3 3 5 4 4 5 5 4 6 9 12 15 13 13 9
5 6 6 5 4 3 6 5 5 2 5 6 6 8 8 11 6 7 4 3 5 4 6 6 7 5 5 6 4 3 4 6 4 2 3 4 3 5 5 7 11 11 6
4 4 4 4 5 6 8 5 1 3 5 6 8 8 7 15 6 7 4 6 8 6 9 8 4 4 5 5 4 4 5 5 5 3 6 6 5 6 5 4 7 11 10
4 4 4 3 3 4 10 8 6 4 6 7 9 8 5 5 5 5 7 8 7 10 6 4 4 4 5 4 4 6 4 4 6 6 5 6 5 5 4 5 10 11 10
5 4 5 4 4 4 10 10 8 5 7 10 10 3 5 6 4 5 5 6 7 7 4 3 3 5 5 3 3 4 5 5 4 3 5 5 5 5 5 6 11 5 6
4 4 4 4 4 5 7 8 4 6 9 11 10 6 1 8 5 7 6 7 8 6 9 9 8 8 9 8 7 3 5 4 6 6 5 6 2 6 7 8 4 7 9
5 4 6 5 7 3 8 7 2 5 6 6 8 7 11 6 6 6 4 6 7 8 10 10 8 7 7 6 11 7 5 5 5 4 3 2 3 2 4 5 3 6 3
Wind_Direction
350 328 14 10 21 25 344 336 350 315 345 353 27 11 6 5 7 358 351 32 26 13 0 351 327 292 242 216 178 153 145 132 121 107 94 85 84 79 75 70 69 70 72
342 329 38 14 10 14 317 330 323 2 344 38 28 22 19 18 29 12 2 25 25 22 20 17 2 351 286 228 190 160 156 141 121 106 93 82 75 71 73 75 72 71 72
341 326 43 23 346 323 342 12 336 358 3 39 6 22 34 32 37 28 26 49 49 50 49 49 51 56 39 67 72 59 33 129 105 91 79 68 65 66 67 69 67 58 53
355 37 23 20 311 325 14 12 6 352 8 95 72 14 20 55 48 51 51 64 58 49 53 56 53 57 59 51 48 68 56 58 43 62 68 71 63 56 56 54 54 50 48
9 357 48 342 334 12 30 0 360 354 341 356 4 49 21 28 43 70 61 60 75 79 66 65 64 63 62 58 46 59 69 66 59 44 52 51 62 66 63 58 53 47 49
37 349 88 355 41 30 23 356 345 321 35 2 335 341 100 76 37 62 67 48 70 91 98 88 78 79 77 73 61 42 53 71 91 85 64 49 43 55 59 55 49 45 39
57 5 55 17 25 61 21 0 340 346 36 12 337 330 213 167 124 71 73 58 21 42 58 127 119 91 111 108 107 96 64 51 65 60 54 50 39 39 42 41 35 35 33
38 67 6 61 1 94 42 10 352 346 346 63 349 311 356 158 30 95 96 113 84 100 62 52 51 81 94 87 80 65 55 35 28 24 21 9 5 8 12 17 6 1 0
89 91 62 22 33 41 27 37 13 358 342 5 24 50 352 17 325 86 149 117 123 78 87 145 116 98 42 106 79 63 51 36 26 15 7 360 354 341 328 324 328 326 322
103 98 67 49 19 78 27 32 23 359 19 358 356 12 355 114 8 339 9 149 163 165 109 60 47 26 67 100 95 80 58 41 27 16 5 354 350 344 334 317 300 301 301
125 112 105 111 34 55 84 25 56 18 20 357 1 358 8 12 10 9 334 347 12 59 67 84 80 79 66 96 137 66 44 35 47 10 359 349 341 338 338 332 326 321 313
160 56 104 97 53 78 30 83 74 69 358 23 358 351 33 26 1 6 352 355 343 307 118 119 207 149 113 106 108 65 1 97 151 329 329 346 340 337 336 332 326 319 315
143 131 101 39 44 83 124 56 17 109 69 22 10 4 349 37 11 357 353 343 336 332 0 121 357 56 57 42 99 48 357 132 163 248 287 302 316 327 332 330 328 326 320
112 133 147 161 58 337 101 6 76 70 59 97 29 358 332 358 26 335 328 339 330 338 354 348 15 46 23 357 356 328 55 143 228 271 286 256 290 313 316 312 309 310 308
139 168 155 97 88 323 29 32 119 99 198 291 114 17 350 345 12 342 341 2 342 349 331 322 323 359 21 336 298 325 21 308 322 340 37 8 301 306 309 306 299 295 296
75 114 145 153 166 243 221 157 148 183 210 84 51 59 284 299 342 348 3 356 354 321 290 300 320 311 321 287 313 299 271 274 268 248 176 185 251 281 301 307 305 302 298
199 165 190 171 187 190 217 151 220 228 213 161 248 242 256 261 264 301 305 285 267 262 288 301 293 292 280 280 254 262 269 276 270 325 324 292 273 277 293 299 298 292 295
181 206 176 214 154 144 148 229 238 27 341 316 318 323 289 309 341 327 306 304 266 284 287 288 283 288 250 229 237 247 231 286 286 296 284 276 264 263 274 281 285 288 287
179 202 173 203 217 151 178 234 285 300 315 314 294 278 290 321 17 287 299 285 296 324 306 298 296 307 307 294 27 340 356 297 286 292 316 335 303 291 281 283 285 286 277
181 184 190 201 203 184 209 215 230 234 251 274 294 296 274 270 233 270 274 276 318 325 296 307 322 317 339 19 360 348 335 315 305 310 320 311 283 277 284 283 281 285 276
209 187 185 201 188 220 239 214 246 328 320 306 298 299 301 310 303 264 256 316 297 291 299 303 307 314 342 344 339 329 313 310 318 316 323 303 301 294 270 281 277 281 246
210 210 203 219 191 222 120 120 213 279 283 282 280 287 310 312 213 274 240 254 259 285 293 284 312 340 312 322 339 326 315 336 323 324 336 311 313 290 275 252 256 263 255
190 212 247 244 225 228 178 194 205 250 270 279 283 286 290 0 350 13 17 339 324 306 291 265 294 286 308 319 340 321 317 305 301 317 312 304 297 301 301 285 289 254 250
194 208 231 230 239 268 185 213 216 254 268 270 272 167 190 112 47 27 354 330 317 312 335 324 323 296 301 339 301 290 294 279 267 296 337 295 302 305 315 304 300 278 236
199 215 224 239 235 239 217 218 209 275 288 299 297 42 294 94 68 35 349 324 317 326 347 339 264 285 283 268 250 285 281 315 298 299 310 277 293 320 307 294 250 234 255
217 218 212 212 236 181 107 102 350 299 300 335 97 77 72 79 58 36 330 324 324 335 330 316 315 313 270 256 249 227 253 271 275 291 170 269 291 277 306 293 323 310 314